Home > Weather > Brisbane > Past weeks

Flag for Australia Weather for the Past 2 Weeks in Brisbane, Queensland, Australia

Now
81 °F

Scattered clouds.


Feels Like: 82 °F
Forecast: 69 / 81 °F
Wind: 15 mph from Southeast

Location: Brisbane Airport M. O

Current Time: Feb 8, 2016 at 12:52:50 PM

Latest Report: Feb 8, 2016 at 12:00 PM


Visibility: N/A

Pressure: 29.95 "Hg

Humidity: 58%

Dew point: 64 °F

Location of BrisbaneLocation

Historic Weather in Brisbane — Graph

°F

Brisbane Temperature Yesterday

Maximum temperature yesterday: 81 °F (at 1:00 PM)
Minimum temperature yesterday: 72 °F (at 12:00 AM)
Average temperature yesterday: 76 °F

High & Low Weather Summary for the Past Weeks

 TemperatureHumidityPressure
High97 °F (Feb 2, 2:00 PM)100% (Jan 29, 3:00 AM)30.01 "Hg (Jan 29, 3:00 AM)
Low66 °F (Feb 8, 4:00 AM)32% (Feb 2, 3:00 PM)29.53 "Hg (Feb 2, 4:30 PM)
Average78 °F78%29.78 "Hg
* Reported Jan 24 11:00 AM — Feb 8 11:00 AM, Brisbane, Weather by CustomWeather, © 2016

Note: Actual official high and low records may vary slightly from our data, if they occured in-between our weather recording intervals... More about our weather records

Advertising

Brisbane Weather History for the Previous 24 Hours

 ConditionsComfort  
Time TempWeatherWind HumidityBarometerVisibility
11:00 AM
Mon, Feb 8
81 °FScattered clouds.13 mph51%29.95 "HgN/A
10:30 AM82 °FScattered clouds.12 mph45%29.98 "HgN/A
10:00 AM81 °FScattered clouds.8 mph51%29.98 "HgN/A
9:30 AM79 °FPassing clouds.10 mph51%29.98 "HgN/A
9:00 AM79 °FPassing clouds.10 mph51%29.98 "HgN/A
8:30 AM77 °FPassing clouds.10 mph57%29.98 "HgN/A
8:00 AM77 °FPassing clouds.10 mph57%29.98 "HgN/A
7:30 AM75 °FSunny.10 mph61%29.98 "Hg10 mi
7:00 AM72 °FSunny.10 mph73%29.98 "Hg10 mi
6:30 AM70 °FSunny.8 mph78%29.98 "Hg10 mi
6:00 AM66 °FSunny.9 mph88%29.95 "Hg10 mi
5:30 AM66 °FSunny.9 mph83%29.95 "Hg10 mi
5:00 AM68 °FSunny.8 mph78%29.95 "Hg10 mi
4:30 AM68 °FSunny.8 mph83%29.95 "Hg10 mi
4:00 AM66 °FClear.7 mph88%29.95 "Hg10 mi
3:30 AM70 °FClear.8 mph73%29.95 "Hg10 mi
3:00 AM70 °FClear.8 mph73%29.95 "Hg10 mi
2:30 AM68 °FClear.8 mph78%29.95 "Hg10 mi
2:00 AM72 °FClear.7 mph69%29.95 "Hg10 mi
1:30 AM70 °FClear.7 mph73%29.95 "Hg10 mi
1:00 AM72 °FClear.7 mph69%29.95 "Hg10 mi
12:30 AM72 °FClear.7 mph69%29.98 "Hg10 mi
12:00 AM72 °FClear.8 mph69%29.98 "Hg10 mi
11:30 PM
Sun, Feb 7
73 °FClear.8 mph65%29.98 "Hg10 mi
11:00 PM73 °FClear.8 mph65%29.98 "Hg10 mi
10:30 PM73 °FClear.7 mph69%29.98 "Hg10 mi
10:00 PM73 °FClear.8 mph69%29.98 "Hg10 mi
9:30 PM73 °FClear.8 mph69%29.98 "Hg10 mi
9:00 PM75 °FClear.8 mph65%29.98 "Hg10 mi
8:30 PM75 °FClear.9 mph65%29.95 "Hg10 mi
8:00 PM77 °FClear.12 mph61%29.95 "Hg10 mi
7:30 PM77 °FClear.10 mph57%29.95 "Hg10 mi
7:00 PM77 °FClear.13 mph57%29.95 "Hg10 mi
6:30 PM77 °FPartly cloudy.9 mph57%29.92 "HgN/A
6:00 PM77 °FPassing clouds.10 mph57%29.92 "HgN/A
5:30 PM79 °FBroken clouds.12 mph58%29.89 "HgN/A
5:00 PM79 °FScattered showers. Partly sunny.10 mph58%29.89 "HgN/A
4:30 PM79 °FSprinkles. Broken clouds.10 mph58%29.89 "HgN/A
4:00 PM79 °FScattered showers. Partly sunny.10 mph61%29.89 "HgN/A
3:30 PM79 °FScattered showers. Partly sunny.13 mph61%29.89 "HgN/A
3:00 PM79 °FScattered showers. Broken clouds.13 mph61%29.89 "HgN/A
2:30 PM79 °FScattered showers. Broken clouds.15 mph61%29.89 "HgN/A
2:00 PM81 °FBroken clouds.14 mph62%29.89 "HgN/A
1:30 PM81 °FBroken clouds.14 mph58%29.89 "HgN/A
1:00 PM81 °FBroken clouds.13 mph62%29.89 "HgN/A
12:00 PM79 °FBroken clouds.12 mph61%29.92 "HgN/A
Weather by CustomWeather, © 2016

See weather overviewHow to use our weather pages